Location: Potawatomi Wildlife Park
(41.2308°N, 86.1050°W)
Time: 18:48:15
(UTC-05:00)

Daily predictions for brighter satellites

Satellite Brightness Start Highest point End
(mag) Time Altitude Azimuth Time Altitude Azimuth Time Altitude Azimuth
Meteor 1-11 Rocket 3.8 17:37:03 10° N 17:42:37 85° W 17:48:08 10° S
ISS -2.8 17:42:26 10° SW 17:45:37 49° SE 17:48:50 10° ENE
Cosmos 1633 2.7 17:44:40 10° N 17:48:16 81° W 17:51:50 10° S
Cosmos 1461 3.7 17:46:52 10° NW 17:50:45 53° WSW 17:54:36 10° SSE
CSL-04 Rocket 4.5 17:46:03 10° S 17:51:23 59° WSW 17:56:51 10° NNW
MSX 4.3 17:48:07 10° SE 17:53:23 39° ENE 17:58:39 10° N
SL-27 R/B 3.5 17:51:16 10° N 17:54:24 25° ENE 17:57:28 10° ESE
Cosmos 2154 Rocket 4.3 17:50:01 10° N 17:56:14 74° W 18:02:27 10° S
Cosmos 1812 4.0 17:53:23 10° SE 17:56:21 21° E 17:59:19 10° NE
Okean 1 Rocket 3.7 17:52:12 10° NNW 17:56:29 61° W 18:00:45 10° S
SJ-12 3.9 17:54:33 10° SSE 17:58:35 62° ENE 18:02:39 10° N
CZ-4 R/B 1.4 17:56:51 10° SSE 18:01:03 80° ENE 18:05:13 10° N
Okean 3 3.8 17:57:20 10° SSW 18:01:37 73° W 18:05:54 10° N
COSMO-SKYMED 1 3.8 17:58:43 10° NE 18:02:07 22° E 18:05:29 10° SE
Cosmos 1544 Rocket 4.1 17:58:42 10° N 18:02:52 39° ENE 18:07:03 10° SSE
Cosmos 158 Rocket 4.0 17:57:43 10° NNW 18:03:07 73° ENE 18:08:21 10° SSE
Cosmos 1844 Rocket 2.8 17:58:54 10° S 18:04:21 60° ESE 18:09:54 10° NNE
Cosmos 1975 Rocket 3.0 18:01:36 10° S 18:05:55 85° E 18:10:15 10° N
Cosmos 1048 Rocket 4.4 18:01:15 10° NNW 18:06:33 73° WSW 18:11:52 10° S
GEOS 3 Rocket 4.2 18:02:59 10° ESE 18:07:36 35° NE 18:12:14 10° NNW
CZ-2C R/B 2.4 18:02:49 10° SSE 18:07:44 74° ENE 18:12:49 10° N
Cosmos 1238 Rocket 2.9 18:08:41 10° SSE 18:11:20 30° E 18:13:47 11° NNE
CZ-3A R/B 3.5 18:10:00 10° WSW 18:14:23 62° NNW 18:35:18 11° NE
Cosmos 1844 3.8 18:09:14 10° S 18:14:37 54° ESE 18:20:02 10° NNE
Cosmos 1975 3.8 18:13:12 10° NNE 18:16:39 26° ENE 18:20:04 10° SE
CRYOSAT 2 4.3 18:11:54 10° N 18:16:50 85° E 18:21:43 10° S
BREEZE-M DEB (TANK) 2.6 18:15:08 10° W 18:17:15 33° NNW 18:18:34 17° NE
AQUARIUS 4.2 18:15:15 10° SSE 18:19:44 84° WSW 18:24:16 10° NNW
MOS 1 4.4 18:14:44 10° SSE 18:20:24 81° WSW 18:26:06 10° NNW
Cosmos 1536 Rocket 4.1 18:18:20 10° SSE 18:22:28 39° E 18:26:39 10° NNE
CORIOLIS 4.2 18:17:25 10° SSE 18:22:50 88° ENE 18:28:17 10° NNW
COSMOS 2441 4.4 18:18:37 10° SSE 18:23:21 55° ENE 18:28:08 10° N
SPOT 3 Rocket 3.8 18:21:09 10° S 18:26:20 73° WSW 18:31:32 10° NNW
SL-24 DEB 4.5 18:22:52 10° NNE 18:27:30 48° E 18:32:02 10° SSE
SMAP 3.4 18:23:35 10° S 18:28:12 70° WSW 18:32:52 10° NNW
YAOGAN 1 2.9 18:25:21 10° S 18:29:39 70° W 18:33:59 10° NNW
Cosmos 2278 Rocket 2.5 18:27:03 10° S 18:32:23 46° ESE 18:36:35 16° NE
COSMOS 2406 3.9 18:28:28 10° NNW 18:34:05 59° WSW 18:39:42 10° S
SL-8 Rocket 4.1 18:28:39 10° N 18:34:49 81° W 18:40:58 10° S
ASTRO F (AKARI) 4.2 18:33:21 10° N 18:36:31 81° WNW 18:39:38 10° SSW
IDEFIX/ARIANE 42P 3.4 18:37:37 10° S 18:42:42 54° W 18:47:48 10° NNW
USA 32 4.3 18:38:03 10° SSW 18:43:15 69° W 18:48:29 10° N
Abrixas 4.2 18:41:49 10° NW 18:44:06 20° N 18:44:08 20° N
Cosmos 2366 rocket 4.0 18:38:33 10° N 18:44:57 89° E 18:51:16 10° S
Cosmos 1484 Rocket 2.5 18:42:54 10° SSE 18:46:40 77° ENE 18:50:25 10° N
Cosmos 2218 Rocket 4.1 18:40:27 10° N 18:46:46 78° W 18:52:58 10° S
OTV 4 2.6 18:45:35 10° WSW 18:48:01 22° SSW 18:49:39 15° SSE
CZ-3B DEB 2.2 18:45:13 10° SW 18:48:57 83° NW 18:55:17 20° NE
SKYMED 2 3.4 18:46:12 11° NNE 18:50:24 75° ESE 18:54:44 10° S
USA 234 4.2 18:45:29 14° NE 18:50:36 40° NNW 18:56:35 10° W
Cosmos 1455 Rocket 3.2 18:48:15 10° N 18:52:39 76° W 18:57:04 10° S
Cosmos 2082 Rocket 2.8 18:52:29 10° N 18:57:31 32° ENE 18:57:45 32° ENE
Cosmos 1833 Rocket 3.5 18:58:33 10° N 19:02:46 29° NE 19:02:46 29° NE
BREEZE-M DEB (TANK) 4.2 18:57:57 10° WNW 19:03:58 30° N 19:05:27 25° NNE
Cosmos 375 4.3 19:01:13 10° NNW 19:05:39 58° NE 19:05:55 56° ENE
NOSS 3-3 (A) 3.9 19:00:00 10° SSW 19:06:08 76° ESE 19:09:41 29° NE
NOSS 3-3 (C) 3.9 19:00:05 10° SSW 19:06:14 76° ESE 19:09:45 29° NE
Cosmos 494 Rocket 4.2 19:02:01 10° NNW 19:07:15 73° WSW 19:12:28 10° S
SL-8 R/B 3.6 19:03:12 10° SW 19:07:57 71° SSE 19:09:02 51° E
Cosmos 1809 Rocket 4.3 19:04:11 10° N 19:10:23 80° E 19:16:30 10° S
Okean 1 3.7 19:07:33 10° SSW 19:11:33 63° W 19:14:31 18° N
Cosmos 1500 3.1 19:08:06 10° N 19:11:57 87° W 19:15:47 10° S
Meteor 1-28 Rocket 3.0 19:15:04 81° NE 19:15:13 85° ESE 19:19:01 10° S
ATLAS 2AS CENTAUR R/B 3.3 19:07:14 10° NW 19:15:15 70° WSW 19:22:41 10° SSE
NOAA 12 3.9 19:10:39 10° SSE 19:15:54 73° ENE 19:21:11 10° N
METEOR-M 4.0 19:11:27 10° SSE 19:16:42 63° ENE 19:21:59 10° N
Cosmos 1821 Rocket 4.0 19:14:28 10° N 19:20:26 52° ENE 19:26:20 10° SSE
ISS -1.4 19:19:25 10° W 19:21:49 25° NW 19:21:49 25° NW
Cosmos 1346 Rocket 3.3 19:28:41 10° SSW 19:32:31 55° WNW 19:32:45 54° WNW
Tiangong 1 4.0 19:33:49 10° SW 19:34:09 12° SSW 19:34:09 12° SSW
COSMO-SKYMED 1 4.2 19:34:47 12° N 19:38:19 32° WNW 19:42:10 10° SW
Nadezhda 3 Rocket 4.2 19:35:01 10° SSW 19:41:08 70° W 19:47:25 10° N
SL-24 R/B - RUBIN 2 4.4 19:41:35 10° SSW 19:47:52 88° ESE 19:48:47 69° NE
ATLAS 3B CENTAUR R/B 4.0 19:45:11 10° WSW 19:57:58 34° SSW 20:00:10 29° SSE
Cosmos 2297 3.8 19:54:03 10° SSW 19:59:27 71° W 19:59:27 71° W
BREEZE-M R/B 4.3 20:00:31 10° WSW 20:08:02 51° NW 20:08:02 51° NW
Cosmos 2278 Rocket 3.9 20:11:54 10° WSW 20:16:40 27° NW 20:18:28 23° NNW
FALCON 9 R/B 3.4 20:12:04 10° WSW 20:26:28 52° SSW 20:26:28 52° SSW
Cosmos 2082 Rocket 3.9 20:36:26 10° NW 20:39:41 29° WNW 20:39:41 29° WNW
CZ-3B DEB 4.5 21:19:48 10° WNW 21:24:12 35° NNW 21:24:12 35° NNW
